Regional Weather Roundup
Issued by NWS

Home | Current Version | Previous Version | Text Only | Print | Product List | Glossary On
Versions: 1 2 3 4 5 6 7 8 9 10 11 12 13 14 15 16 17 18 19 20 21 22 23 24 25 26 27 28 29 30 31 32 33 34 35 36 37 38 39 40 41 42 43 44 45 46 47 48 49 50
000
ASUS43 KFSD 182010
RWRSD

WEATHER ROUNDUP FOR SOUTH DAKOTA
NATIONAL WEATHER SERVICE SIOUX FALLS SD
200 PM CST MON NOV 18 2019

NOTE: "FAIR" INDICATES FEW OR NO CLOUDS BELOW 12,000 FEET WITH NO
SIGNIFICANT WEATHER AND/OR OBSTRUCTIONS TO VISIBILITY.


SDZ001>005-009-010-012>017-182100-
NORTHWEST AND NORTH CENTRAL SOUTH DAKOTA

CITY           SKY/WX    TMP DP  RH WIND       PRES   REMARKS
BUFFALO          N/A     56  32  40 NW24G32   29.80S
FAITH            N/A     55  34  45 NW30G41   29.78R
MOBRIDGE       PTSUNNY   58  40  51 NW21G30   29.68R
$$

SDZ012>016-024>037-041>051-057-063-072>074-182100-
SOUTHWEST AND SOUTH CENTRAL SOUTH DAKOTA

CITY           SKY/WX    TMP DP  RH WIND       PRES   REMARKS
RAPID CTY ARPT MOSUNNY   58  29  33 N23G39    29.86R
PIERRE         SUNNY     58  38  47 NW26G38   29.70R
CUSTER         SUNNY     49  26  41 NW15G29   29.90S
ELLSWORTH AFB  SUNNY     57  31  36 N23G33    29.85R
PHILIP         SUNNY     62  32  32 NW32G46   29.77R
PINE RIDGE     SUNNY     61  28  28 N14       29.87F
SPEARFISH      FAIR      54  28  37 NW23G30   29.89S
WINNER         FAIR      62  35  36 NW29G43   29.71R
$$

SDZ004>011-016>023-039-040-182100-
NORTHEAST SOUTH DAKOTA

CITY           SKY/WX    TMP DP  RH WIND       PRES   REMARKS
ABERDEEN       LGT RAIN  48  44  86 NW15      29.64R
WATERTOWN      LGT RAIN  43  39  86 W12       29.60R
BROOKINGS      LGT RAIN  47  42  83 NW10      29.59S
SISSETON         N/A     43  38  82 NW7       29.59S
$$

SDZ017-020-022-023-036>040-048>070-182100-
SOUTHEAST SOUTH DAKOTA

CITY           SKY/WX    TMP DP  RH WIND       PRES   REMARKS
SIOUX FALLS    CLOUDY    53  44  71 NW9       29.60F
HURON          CLOUDY    52  45  77 NW18G24   29.63R
CHAMBERLAIN    SUNNY     60  41  49 NW18G33   29.69R
MADISON        LGT RAIN  45  45 100 NW16      29.61S
MITCHELL       CLOUDY    53  45  74 NW13G23   29.65R
YANKTON        CLOUDY    60  43  53 NW23G29   29.62S
$$

ABBREVIATIONS USED IN REMARKS
   TC - TEMPERATURE IN CELSIUS
  WCI - WIND CHILL INDEX
   HX - HEAT INDEX
  VSB - VISIBILITY




USA.gov is the U.S. government's official web portal to all federal, state and local government web resources and services.